Tracking 19795 objects as of 20-Jul-2019
HD Live streaming from Space Station
objects crossing your sky now

INTELSAT 804

Track INTELSAT 804 now!
INTELSAT 804 is classified as:


NORAD ID: 25110
Int'l Code: 1997-083A
Perigee: 35,784.2 km
Apogee: 35,833.8 km
Inclination: 10.6 °
Period: 1,436.9 minutes
Semi major axis: 42179 km
RCS: 10.0118 m2 (large)
Launch date: December 21, 1997
Source: International Telecommunications Satellite Organization (ITSO)
Launch site: FRENCH GUIANA (FRGUI)
aabbcc
Your satellite tracking list
Your tracking list is empty




NASA's NSSDC Master Catalog

Two Line Element Set (TLE):
1 25110U 97083A   19200.81946573 -.00000268 +00000-0 +00000-0 0  9998
2 25110 010.6066 034.8431 0005879 333.6676 188.7879 01.00217437079038
Source of the keplerian elements: AFSPC